Tracking 23762 objects as of 19-Oct-2021
HD Live streaming from Space Station
objects crossing your sky now

BREEZE-M DEB (TANK)

Track BREEZE-M DEB (TANK) now!
10-day predictions


NORAD ID: 44309
Int'l Code: 2019-031C
Perigee: 343.8 km
Apogee: 17,779.2 km
Inclination: 49.5 °
Period: 318.0 minutes
Semi major axis: 15432 km
RCS: Unknown
Launch date: May 30, 2019
Source: Commonwealth of Independent States (former USSR) (CIS)
Launch site: TYURATAM MISSILE AND SPACE COMPLEX (TTMTR)

Note: This is SATELLITE DEBRIS
aabbcc
Your satellite tracking list
Your tracking list is empty




NASA's NSSDC Master Catalog

Two Line Element Set (TLE):
1 44309U 19031C   21291.61145321  .00000506  00000-0  23556-3 0  9997
2 44309  49.4977 327.5498 5648911 108.1569 318.7266  4.52844031 39426
Source of the keplerian elements: AFSPC